Regional Weather Roundup
Issued by NWS Mt. Holly, NJ

Home | Current Version | Previous Version | Text Only | Print | Product List | Glossary On
Versions: 1 2 3 4 5 6 7 8 9 10 11 12 13 14 15 16 17 18 19 20 21 22 23 24 25 26 27 28 29 30 31 32 33 34 35 36 37 38 39 40 41 42 43 44 45 46 47 48 49 50
000
ASUS41 KPHI 200810
RWRPHI

REGIONAL WEATHER ROUNDUP
NATIONAL WEATHER SERVICE MOUNT HOLLY NJ
400 AM EDT SAT SEP 20 2014

NOTE:  "FAIR" INDICATES FEW OR NO CLOUDS BELOW 12,000 FEET WITH NO
SIGNIFICANT WEATHER AND/OR OBSTRUCTIONS TO VISIBILITY.

 * = STATION DOES NOT REPORT PRECIPITATION (E.G. RAIN, SNOW, ETC.)
        OR FOG.

NJZ015>026-200900-
SOUTHERN NEW JERSEY

CITY           SKY/WX    TMP DP  RH WIND       PRES   REMARKS
POMONA         CLEAR     61  57  87 E5        30.28S
RIO GRANDE*    PTCLDY    66  55  68 SE8       30.27S
MILLVILLE      CLEAR     53  52  96 CALM      30.27F FOG
WRIGHTSTOWN    CLEAR     52  52 100 CALM      30.28R
MOUNT HOLLY    PTCLDY    51  49  92 CALM      30.29F FOG
TRENTON        PTCLDY    52  50  93 NE6       30.29F

$$
NJZ001>014-200900-
NORTHERN NEW JERSEY

CITY           SKY/WX    TMP DP  RH WIND       PRES   REMARKS
SUSSEX         CLOUDY    51  48  89 CALM      30.31F
ANDOVER*         N/A     54  51  90 CALM      30.31F
MORRISTOWN     CLOUDY    54  50  87 CALM      30.33S
NEWARK         MOCLDY    64  54  69 CALM      30.32S
TETERBORO      CLOUDY    60  49  66 CALM      30.31S
CALDWELL       CLOUDY    54  48  80 CALM      30.33S
SOMERVILLE     CLOUDY    50  48  93 NW3       30.30F
ALLAIRE*       CLEAR     61  52  72 SE5       30.30S
TOMS RIVER*    CLEAR     52  50  93 CALM      30.30S

$$
PAZ043-044-047-054-055-060>062-066>071-200900-
EASTERN PENNSYLVANIA

CITY           SKY/WX    TMP DP  RH WIND       PRES   REMARKS
PHILADELPHIA   CLOUDY    58  54  86 CALM      30.30S
NORTH PHILA    PTCLDY    55  50  83 NE3       30.31S
BLUE BELL        N/A     52  52 100 CALM      30.29S
DOYLESTOWN     CLOUDY    53  52  96 N3        30.30S
QUAKERTOWN*    CLOUDY    55  54  94 CALM      30.31S
POTTSTOWN      CLOUDY    56  53  90 CALM      30.31S
LANCASTER      CLOUDY    55  53  93 NE5       30.28F FOG
COATESVILLE    MOCLDY    55  55 100 CALM      30.30S FOG
READING        CLOUDY    59  53  80 CALM      30.29S
ALLENTOWN      CLOUDY    57  52  83 CALM      30.31S
MOUNT POCONO   CLOUDY    52  50  93 SE8       30.30F FOG
HAZLETON       CLOUDY    54  54 100 SE12G18   30.30F
WILKES BARRE   CLOUDY    58  52  80 N6        30.27F

$$
DEZALL-MDZ008-012-015-019-020-200900-
DELAWARE AND EASTERN MARYLAND

CITY           SKY/WX    TMP DP  RH WIND       PRES   REMARKS
WILMINGTON     CLOUDY    60  56  86 CALM      30.29S
DOVER          MOCLDY    66  61  82 SE6       30.24S
GEORGETOWN     CLEAR     59  57  93 VRB3      30.26F
EASTON         PTCLDY    61  61 100 CALM      30.29F
PATUXENT       MOCLDY    68  61  78 SE8       30.24F
OCEAN CITY     CLEAR     69  60  73 SE12G18   30.24F
WALLOPS ISLAND PTCLDY    67  62  84 E6        30.24F
CAMBRIDGE      PTCLDY    59  55  88 CALM      30.25S
SALISBURY      CLEAR     60  56  86 CALM      30.24F

$$
PAZ001-021-NYZ056-072-MDZ011-DCZ001-200900-
OTHER NEARBY LOCATIONS

CITY           SKY/WX    TMP DP  RH WIND       PRES   REMARKS
HARRISBURG     CLOUDY    60  54  80 E5        30.27F
STATE COLLEGE  CLOUDY    62  56  81 S9        30.23S
WILLIAMSPORT   CLOUDY    61  54  77 S18G28    30.22F
BINGHAMTON     CLOUDY    54  50  86 S13       30.23F
NEW YORK CITY  MOCLDY    58  50  75 CALM      30.34F
BALTIMORE      CLOUDY    63  60  90 E3        30.26F
WASHINGTON DC  PTCLDY    65  60  84 NE5       30.27S

$$


USA.gov is the U.S. government's official web portal to all federal, state and local government web resources and services.